Dewpoint
68 69 68 69 69 69 69 68 68 69 69 70 70 70 70 68 67 65 64 63 62 62 62 61 61 61 59 59 60 59 58 55 54 55 55 58 57 58 59 59 60 60 60
66 68 69 69 69 69 69 69 69 69 70 70 70 70 70 68 67 66 65 63 62 62 62 62 60 60 60 60 59 59 58 58 57 55 57 58 58 59 59 59 59 59 60
65 67 68 68 69 69 69 69 69 69 69 69 70 70 69 69 67 66 65 64 63 62 62 62 62 61 60 61 60 60 60 60 59 57 56 59 59 60 59 59 59 59 58
64 65 66 68 68 69 69 69 69 70 69 69 69 70 70 69 67 67 66 65 64 63 63 62 62 62 61 60 60 60 61 60 60 59 59 59 60 59 59 57 56 58 57
65 65 66 67 68 68 70 69 69 70 70 69 69 69 70 69 68 67 66 65 64 64 64 63 62 62 62 61 60 60 60 59 60 60 60 60 58 58 56 57 56 57 57
65 65 66 67 68 68 69 69 70 70 70 69 69 69 69 69 68 67 66 66 65 64 63 63 64 64 63 61 60 60 61 60 60 60 60 59 59 57 57 56 56 55 55
65 66 67 68 69 69 69 69 69 69 70 69 69 69 69 69 68 67 66 67 66 65 65 64 64 64 63 63 62 62 61 61 61 60 60 59 58 57 57 56 56 57 57
65 66 67 68 69 69 70 70 69 69 69 69 69 69 69 69 67 66 66 68 67 66 65 65 65 64 64 63 63 63 63 63 63 63 62 61 60 60 59 59 59 58 57
66 67 68 69 69 70 70 70 70 70 70 70 70 69 69 69 67 65 66 67 66 65 66 65 65 64 63 62 63 62 61 61 61 61 61 61 60 60 61 59 57 56 54
67 67 68 69 69 69 70 71 71 71 70 71 70 69 69 69 66 64 66 67 65 65 65 66 64 64 62 62 62 62 60 59 60 59 57 54 53 53 56 58 55 53 52
66 68 69 70 70 70 71 71 71 71 71 71 70 70 70 69 66 64 64 66 66 65 65 64 64 62 62 61 63 62 61 60 58 58 55 51 51 52 52 54 55 52 50
66 68 69 70 70 70 71 71 72 72 71 71 70 70 71 70 67 62 64 67 66 65 64 64 64 62 61 60 60 61 58 58 56 54 50 48 50 48 48 48 48 51 53
64 66 69 69 70 71 71 71 71 72 71 71 70 70 69 65 64 63 63 64 64 64 64 63 61 59 58 57 58 58 57 56 53 51 48 48 50 50 49 45 45 43 42
62 63 66 69 70 71 72 72 71 71 71 70 70 69 67 65 64 61 62 62 61 61 59 58 57 58 59 58 57 56 56 54 52 50 49 49 51 50 46 43 41 39 36
67 63 63 66 68 71 71 71 71 72 72 71 70 68 65 64 63 62 61 61 61 59 58 58 58 57 56 56 55 54 53 52 51 50 50 50 50 47 44 42 40 38 36
59 65 65 66 68 70 65 63 62 69 69 68 67 66 65 63 62 62 62 60 58 57 59 58 57 57 56 55 54 53 52 51 51 51 51 51 50 47 42 39 38 37 35
60 66 67 67 68 64 65 65 62 57 59 62 64 64 63 61 60 60 57 58 57 58 59 58 58 57 56 54 53 52 52 52 52 51 51 50 47 42 39 37 37 35 33
61 62 66 66 65 66 65 65 63 63 61 61 59 58 59 58 56 54 54 55 55 59 59 58 58 56 55 54 52 52 52 52 52 52 50 47 41 37 34 36 35 34 33
61 63 63 63 63 66 65 64 63 62 61 60 53 53 49 50 51 52 55 59 58 58 58 58 57 56 54 53 53 53 52 50 49 47 43 37 35 35 37 35 33 32 34
60 59 62 61 60 58 60 61 61 60 58 56 58 53 49 53 54 54 60 60 59 59 57 56 55 54 54 53 52 50 48 44 42 39 38 36 36 37 35 33 32 33 33
63 62 62 62 60 59 59 59 59 59 58 59 59 55 57 60 58 58 58 58 57 57 56 55 54 54 53 51 49 47 45 42 40 39 38 36 35 34 36 33 33 33 33
63 63 62 61 60 60 59 58 58 59 59 57 54 52 56 61 60 59 58 57 56 56 56 55 53 51 49 48 47 45 43 42 41 39 37 35 35 35 33 33 33 33 33
60 61 61 61 61 60 59 59 58 58 57 55 53 54 55 57 57 57 56 56 54 54 53 52 50 49 48 48 46 45 42 41 41 39 35 34 34 33 33 32 32 32 32
59 58 59 60 60 60 60 59 58 57 56 55 53 53 55 55 55 55 55 54 53 52 51 50 49 49 48 47 46 45 44 43 41 37 35 34 33 32 32 30 29 31 32
57 57 56 57 57 57 58 59 59 58 57 56 54 53 52 53 52 53 53 52 52 51 51 51 50 49 48 47 46 44 41 38 37 34 35 35 33 32 26 25 26 31 32
53 55 55 54 53 52 53 54 55 56 56 55 54 54 54 53 53 52 52 51 51 51 51 50 50 48 47 46 45 42 36 30 31 32 34 31 28 25 25 25 30 34 33
Wind_Speed
30 30 29 28 28 27 25 25 24 19 20 20 19 19 19 19 19 19 17 15 18 16 12 14 15 11 11 9 7 6 7 6 7 3 4 2 3 5 2 2 3 5 6
33 32 32 30 28 29 28 26 21 23 19 21 20 20 20 19 20 21 22 17 21 19 18 16 16 12 13 11 10 10 8 9 7 9 3 3 6 3 5 5 4 4 5
30 31 30 31 29 29 29 27 22 22 21 20 21 22 22 21 22 21 22 22 21 20 20 19 17 16 16 12 11 12 9 7 8 7 8 1 2 2 4 4 5 5 3
29 29 31 33 33 32 31 29 25 24 23 24 23 23 22 21 22 23 22 22 22 20 20 21 19 21 18 17 14 13 12 11 9 9 7 7 5 2 4 6 8 2 3
32 33 35 32 30 29 28 27 25 26 26 26 25 23 21 23 22 24 22 24 22 23 20 19 17 18 18 18 15 15 13 13 10 11 9 5 5 6 8 2 6 8 6
34 36 32 30 30 31 29 28 26 25 25 24 26 27 25 24 26 29 25 23 24 22 18 15 15 17 17 21 22 19 17 16 14 11 10 12 12 8 5 6 4 4 6
34 31 31 29 29 30 28 27 28 28 25 26 26 25 26 26 27 32 31 21 21 19 19 19 19 17 19 15 18 20 19 19 12 14 12 12 11 9 5 4 6 5 6
30 28 27 30 31 27 28 31 29 28 30 28 28 27 25 24 28 35 33 24 19 21 21 21 21 21 16 15 14 13 12 13 14 11 13 11 8 4 7 3 2 3 5
29 30 31 32 32 31 31 33 30 27 27 29 26 26 27 27 34 35 32 23 20 19 17 17 21 17 14 18 16 14 12 10 8 13 10 7 6 7 7 6 5 4 4
29 34 32 32 32 31 31 30 28 25 25 23 23 26 31 30 29 35 36 22 20 17 18 17 20 17 19 22 17 16 15 12 12 9 6 5 2 4 8 8 4 5 3
24 22 24 28 30 31 31 27 26 25 21 24 25 27 29 30 23 35 35 24 21 18 15 15 15 20 19 21 18 16 15 10 10 6 6 4 3 3 5 5 6 5 4
14 18 20 22 23 23 28 30 29 26 25 23 22 23 21 20 23 32 37 24 21 19 17 15 14 20 19 19 19 13 14 12 10 10 8 5 4 5 4 3 3 4 5
15 21 22 22 25 24 24 24 26 29 28 26 26 23 17 12 20 32 34 25 23 18 15 16 18 20 18 14 13 15 17 12 12 10 9 7 4 3 1 1 2 2 4
9 16 18 21 22 24 23 24 26 28 31 33 34 32 27 21 19 17 20 21 17 12 15 12 17 17 13 14 11 12 11 11 12 10 8 6 4 3 2 2 3 1 3
7 11 18 22 25 24 26 26 30 28 27 25 23 20 22 20 15 15 22 11 15 17 23 15 15 14 13 11 9 11 11 10 10 9 7 6 5 4 3 3 3 2 2
15 15 15 20 20 21 18 9 6 19 20 21 22 21 18 30 27 21 23 16 17 24 13 12 13 15 17 15 14 13 12 13 11 9 8 6 6 6 5 5 3 3 4
14 16 17 21 22 24 22 21 22 15 28 29 30 34 34 29 29 31 32 39 36 24 14 16 17 16 15 15 16 15 14 13 10 10 9 7 7 6 6 6 5 4 3
7 8 6 13 19 24 28 28 29 32 29 23 16 12 30 34 37 41 35 33 20 11 16 18 17 17 15 15 14 13 10 10 11 10 8 8 7 6 7 7 6 4 3
1 6 6 8 18 23 31 31 29 25 23 19 12 12 11 17 29 33 40 23 22 17 16 17 17 17 17 15 13 11 11 12 12 11 9 9 7 9 9 7 6 5 4
5 3 2 6 14 19 14 28 23 21 19 13 12 11 20 20 15 22 16 17 18 16 16 15 14 13 15 15 13 13 13 14 12 11 10 8 10 11 9 7 5 4 3
8 10 2 10 7 13 2 7 19 22 24 20 21 20 24 25 24 24 20 18 19 17 16 14 14 14 14 14 14 16 16 14 13 12 10 10 10 10 9 6 5 5 4
12 10 8 6 6 8 10 4 12 17 18 19 17 13 13 14 16 18 20 19 15 14 13 15 16 16 15 17 18 17 15 14 14 12 12 11 10 10 9 8 6 6 4
10 10 11 9 10 14 13 12 11 11 14 15 16 16 11 9 11 14 14 15 15 14 11 12 13 11 10 12 14 17 17 17 16 13 13 11 11 12 10 7 6 6 5
12 12 12 13 12 10 8 12 11 11 11 12 14 13 15 16 16 16 14 14 14 12 13 13 12 13 14 14 13 12 9 9 12 14 13 11 11 12 9 7 7 7 6
17 16 16 14 13 12 10 9 7 7 6 6 7 9 8 4 6 12 14 14 14 14 14 12 11 13 15 16 14 13 12 14 12 11 9 10 11 10 8 6 7 7 6
17 14 12 13 15 13 11 13 11 8 7 3 6 7 8 7 8 9 16 17 16 15 14 12 13 15 15 14 13 15 16 15 12 13 11 9 10 9 8 8 9 7 6
Wind_Direction
198 199 201 200 202 202 203 205 205 199 194 192 195 193 196 192 190 194 204 203 210 213 209 211 214 203 207 215 206 204 202 189 235 274 238 258 262 261 264 274 264 268 269
197 195 199 200 198 197 201 205 201 202 196 195 192 193 197 195 190 193 203 202 209 212 213 211 216 206 212 208 209 212 215 200 203 252 262 238 228 252 246 259 278 272 287
195 197 198 199 198 199 203 205 199 196 195 194 194 197 198 195 194 197 201 203 206 211 209 212 216 208 219 212 209 218 217 210 212 228 253 244 233 227 253 245 256 278 302
198 198 200 200 199 198 200 201 198 196 192 195 198 197 198 197 199 198 198 203 205 207 208 209 210 210 217 213 213 210 209 213 209 229 247 258 264 268 278 283 294 284 309
196 199 203 203 201 200 199 199 197 195 196 195 196 200 197 199 202 199 197 204 205 214 209 211 209 209 211 209 214 219 212 221 222 228 240 250 254 247 253 263 288 315 303
196 202 201 199 197 199 198 195 195 195 199 195 199 202 199 204 206 199 196 202 210 213 213 199 209 223 219 218 219 219 207 212 220 218 230 242 252 242 220 229 251 302 306
199 199 198 197 199 200 197 194 196 196 191 197 201 201 207 209 202 203 199 201 208 204 199 201 212 219 216 208 222 226 222 217 211 212 233 234 252 226 207 231 234 235 246
200 197 195 195 199 197 195 198 199 196 194 194 198 200 204 210 204 206 200 202 198 195 195 207 213 217 202 201 210 218 222 220 217 212 223 236 229 193 211 218 214 236 274
198 197 195 196 196 195 197 200 201 197 197 198 196 195 201 210 207 204 193 198 198 194 196 201 215 213 200 197 207 216 218 209 199 213 216 228 227 210 195 168 216 216 271
202 202 196 195 196 198 202 202 201 200 199 191 193 197 206 214 205 196 193 191 191 193 196 206 205 201 199 191 197 203 213 215 183 169 168 162 159 142 177 209 199 240 233
206 209 201 195 196 199 195 199 201 198 192 195 195 199 209 212 202 195 186 185 190 189 193 196 205 202 200 191 192 201 209 183 179 182 179 174 169 185 162 170 184 182 205
200 200 205 206 206 213 205 182 188 197 193 193 202 216 214 204 186 189 187 182 178 184 192 194 196 189 191 186 188 196 162 151 158 165 172 178 167 165 182 156 185 213 230
208 208 205 202 205 196 202 191 189 191 189 195 195 209 209 184 182 184 185 184 181 177 183 186 175 170 166 162 179 176 158 164 168 178 176 181 190 166 164 233 223 228 249
223 227 208 206 203 200 196 199 202 199 200 198 196 187 179 172 173 173 174 172 176 159 125 147 146 147 144 146 134 154 161 173 179 181 188 163 157 188 218 229 246 298 314
289 241 220 206 202 201 199 198 201 205 205 195 200 186 168 156 152 161 158 164 174 164 138 149 147 139 148 155 151 160 160 172 183 172 186 174 198 206 215 214 228 223 254
292 268 234 208 198 197 178 162 54 178 169 153 148 144 119 121 111 126 171 159 156 160 139 169 161 165 169 177 173 173 180 188 192 184 194 189 214 222 218 218 213 220 255
289 278 237 207 183 171 166 160 137 91 114 130 138 136 145 152 140 192 175 156 172 163 170 178 178 182 182 185 176 178 186 197 181 197 190 202 207 205 210 228 224 214 247
324 332 291 207 186 181 164 157 146 140 138 146 150 182 164 169 167 169 151 137 177 184 181 180 185 183 181 182 180 188 186 178 186 186 180 197 193 203 217 218 219 218 238
188 26 30 20 354 206 161 152 142 135 138 146 151 117 113 148 152 151 139 160 176 189 189 185 183 178 177 174 183 189 186 184 180 166 176 185 195 203 210 209 225 218 219
49 304 24 64 64 28 38 118 127 131 128 156 148 217 133 131 163 147 143 160 172 185 184 183 178 175 168 176 184 182 178 178 170 170 182 193 204 212 214 203 221 240 244
65 58 359 218 144 120 140 265 135 146 156 153 161 182 159 154 158 167 164 169 177 182 179 173 171 183 177 180 177 180 186 180 177 182 187 199 208 218 217 209 220 231 246
70 72 88 95 82 106 98 95 92 102 129 149 142 140 130 140 160 168 176 169 172 176 173 171 180 190 184 180 181 180 182 180 183 195 199 198 207 214 204 205 214 228 245
57 80 74 57 81 89 78 68 92 123 122 118 123 138 132 146 168 169 169 160 168 174 172 180 182 180 181 181 179 177 178 191 197 190 197 193 198 201 200 206 220 233 246
49 38 57 74 67 61 99 119 114 110 114 119 142 159 178 181 182 173 167 166 161 164 176 177 180 180 182 182 186 183 196 185 181 191 190 188 194 194 195 202 215 230 247
42 46 52 49 57 56 36 45 67 90 118 148 156 167 171 191 180 171 168 162 169 176 182 186 178 182 183 184 188 191 186 189 185 176 180 179 176 187 195 217 227 220 224
34 46 55 70 70 69 83 88 75 79 85 126 145 151 162 194 221 195 167 172 180 186 180 179 187 190 187 182 187 186 179 182 179 168 163 170 176 194 204 215 214 223 231